GPS BIIRM-6 (PRN 07)

Last updated on Sat Dec 13 2025 00:03:17 GMT+0000 (Coordinated Universal Time)

1 32711U 08012A 25345.67666141 .00000089 00000+0 00000+0 0 9996 2 32711 54.4770 157.4153 0202401 244.9354 112.9612 2.00565584129996
UTC large
Height (km)
Speed (km/s)
/
Latitude / Longitude
Inclination (degrees)
Orbital Period (minutes)
Azimuth
Elevation
Range (km)
Doppler Factor

Next 0 passes for location: London (51.5072 / 0.1276)

Sorry there are no passes over London.